FW9588 Weather Reports


time (UTC)temp
C
wind
direction
speed
KPH
gust
KPH
rain 1hr
cm
rain 24hr
cm
rain mn
cm
humidity
%
barometer
mb
20260504220946 24 318 4.8 8.0 0.00 0.00 0.00 50 1000.1
20260504220443 23 322 3.2 4.8 0.00 0.00 0.00 50 999.9
20260504215940 24 239 8.0 11.3 0.00 0.00 0.00 49 1000.0
20260504215436 25 127 4.8 8.0 0.00 0.00 0.00 48 1000.2
20260504214933 24 158 6.4 11.3 0.00 0.00 0.00 48 1000.2
20260504214429 23 338 1.6 8.0 0.00 0.00 0.00 49 1000.2
20260504213926 23 340 1.6 8.0 0.00 0.00 0.00 49 1000.1
20260504213422 23 194 4.8 4.8 0.00 0.00 0.00 48 1000.1
20260504212920 24 127 11.3 14.5 0.00 0.00 0.00 46 1000.2
20260504212415 25 294 0.0 1.6 0.00 0.00 0.00 45 1000.2
20260504211914 25 46 8.0 14.5 0.00 0.00 0.00 44 999.9
20260504211409 24 234 1.6 3.2 0.00 0.00 0.00 47 1000.2
20260504210907 24 13 6.4 9.7 0.00 0.00 0.00 46 1000.0
20260504210404 24 224 11.3 16.1 0.00 0.00 0.00 46 999.9
20260504205901 25 346 4.8 9.7 0.00 0.00 0.00 45 999.9
20260504205359 25 343 6.4 12.9 0.00 0.00 0.00 45 1000.2
20260504204857 25 130 3.2 8.0 0.00 0.00 0.00 44 1000.0
20260504204354 25 102 3.2 3.2 0.00 0.00 0.00 45 1000.0
20260504203854 25 181 4.8 8.0 0.00 0.00 0.00 45 1000.2
20260504203350 25 105 4.8 8.0 0.00 0.00 0.00 45 999.9
20260504202846 26 345 0.0 1.6 0.00 0.00 0.00 45 1000.2
20260504202344 25 22 4.8 9.7 0.00 0.00 0.00 45 1000.1
20260504201840 25 228 4.8 8.0 0.00 0.00 0.00 45 1000.3
20260504201337 25 182 4.8 9.7 0.00 0.00 0.00 46 1000.3
20260504200835 25 145 3.2 4.8 0.00 0.00 0.00 44 1000.3
20260504200331 25 346 4.8 9.7 0.00 0.00 0.00 45 1000.3
20260504195827 25 311 3.2 3.2 0.00 0.00 0.00 45 1000.2
20260504195323 26 207 8.0 11.3 0.00 0.00 0.00 44 1000.4
20260504194820 26 108 3.2 4.8 0.00 0.00 0.00 47 1000.4
20260504194316 26 13 1.6 3.2 0.00 0.00 0.00 46 1000.6
20260504193812 25 73 4.8 4.8 0.00 0.00 0.00 46 1000.7
20260504193310 25 316 4.8 4.8 0.00 0.00 0.00 48 1001.0
20260504192808 25 94 4.8 8.0 0.00 0.00 0.00 46 1001.0
20260504192306 25 121 3.2 3.2 0.00 0.00 0.00 46 1000.8
20260504191804 25 336 8.0 14.5 0.00 0.00 0.00 46 1001.0
20260504191301 25 18 3.2 4.8 0.00 0.00 0.00 45 1001.2
20260504190757 25 339 8.0 12.9 0.00 0.00 0.00 45 1001.1
20260504190253 25 28 3.2 3.2 0.00 0.00 0.00 46 1001.1
20260504185750 25 190 3.2 4.8 0.00 0.00 0.00 47 1001.3
20260504185247 25 351 3.2 4.8 0.00 0.00 0.00 51 1001.3
20260504184743 24 301 3.2 3.2 0.00 0.00 0.00 51 1001.4
20260504184239 23 295 1.6 1.6 0.00 0.00 0.00 53 1001.4
20260504183734 23 133 6.4 8.0 0.00 0.00 0.00 55 1001.7
20260504183232 23 131 3.2 8.0 0.00 0.00 0.00 53 1001.5
20260504182730 24 164 3.2 4.8 0.00 0.00 0.00 53 1001.9
20260504182227 24 164 3.2 9.7 0.00 0.00 0.00 52 1001.8
20260504181725 23 161 1.6 1.6 0.00 0.00 0.00 54 1001.7
20260504181222 24 21 6.4 8.0 0.00 0.00 0.00 51 1002.0
20260504180721 24 172 8.0 11.3 0.00 0.00 0.00 50 1001.9
20260504180219 23 85 4.8 8.0 0.00 0.00 0.00 52 1002.0
20260504175716 23 50 3.2 3.2 0.00 0.00 0.00 50 1001.9
20260504175213 23 11 1.6 1.6 0.00 0.00 0.00 51 1002.1
20260504174711 23 352 3.2 3.2 0.00 0.00 0.00 52 1002.1
20260504174209 23 315 3.2 3.2 0.00 0.00 0.00 51 1002.1
20260504173705 23 9 3.2 3.2 0.00 0.00 0.00 50 1002.0
20260504173202 23 3 0.0 0.0 0.00 0.00 0.00 53 1002.2
20260504172658 23 0 4.8 8.0 0.00 0.00 0.00 52 1002.1
20260504172155 23 207 4.8 8.0 0.00 0.00 0.00 52 1002.4
20260504171651 23 320 1.6 3.2 0.00 0.00 0.00 53 1002.4
20260504171148 23 114 3.2 3.2 0.00 0.00 0.00 51 1002.4
20260504170645 23 38 1.6 3.2 0.00 0.00 0.00 51 1002.5
20260504170143 23 115 1.6 3.2 0.00 0.00 0.00 51 1002.8
20260504151027 19 308 4.8 4.8 0.00 0.00 0.00 58 1004.3
20260504150525 19 309 3.2 3.2 0.00 0.00 0.00 57 1004.2
20260504140951 16 4 3.2 4.8 0.00 0.00 0.00 65 1004.8
20260504140447 16 252 0.0 1.6 0.00 0.00 0.00 66 1004.9
20260504130412 13 1 1.6 3.2 0.00 0.00 0.00 73 1005.2
20260504110259 10 15 0.0 0.0 0.00 0.00 0.00 81 1005.4
20260504100217 11 16 0.0 1.6 0.00 0.00 0.00 79 1005.2
20260504090140 11 131 3.2 4.8 0.00 0.00 0.00 79 1005.3
20260504081610 11 123 1.6 3.2 0.00 0.00 0.00 78 1005.4
20260504081106 11 123 0.0 1.6 0.00 0.00 0.00 78 1005.4
20260504080603 11 92 3.2 3.2 0.00 0.00 0.00 78 1005.5
20260504050415 11 161 3.2 3.2 0.00 0.00 0.00 75 1007.4
20260504045912 11 87 0.0 0.0 0.00 0.00 0.00 76 1007.6
20260504045408 11 125 1.6 3.2 0.00 0.00 0.00 76 1007.5
20260504044904 11 254 1.6 3.2 0.00 0.00 0.00 76 1007.6
20260504044402 11 101 1.6 1.6 0.00 0.00 0.00 76 1007.5
20260504043859 11 117 1.6 3.2 0.00 0.00 0.00 76 1007.7
20260504043356 11 155 3.2 3.2 0.00 0.00 0.00 76 1007.8
20260504042854 11 103 1.6 3.2 0.00 0.00 0.00 76 1007.6
20260504042349 11 127 3.2 4.8 0.00 0.00 0.00 76 1007.8
20260504041846 11 78 1.6 1.6 0.00 0.00 0.00 76 1007.7
20260504041342 11 93 1.6 1.6 0.00 0.00 0.00 76 1007.7
20260504040838 11 97 0.0 1.6 0.00 0.00 0.00 75 1007.5
20260504040336 11 156 4.8 4.8 0.00 0.00 0.00 76 1007.8
20260504035832 11 328 1.6 3.2 0.00 0.00 0.00 76 1007.9
20260504035330 11 142 1.6 3.2 0.00 0.00 0.00 75 1007.8
20260504034827 11 112 1.6 3.2 0.00 0.00 0.00 76 1008.1
20260504034324 11 124 4.8 4.8 0.00 0.00 0.00 75 1008.0
20260504033821 11 143 4.8 8.0 0.00 0.00 0.00 76 1008.0
20260504033319 11 149 4.8 4.8 0.00 0.00 0.00 76 1008.0
20260504032815 11 49 0.0 0.0 0.00 0.00 0.00 75 1007.9
20260504032313 11 158 4.8 4.8 0.00 0.00 0.00 75 1008.2
20260504031809 11 180 1.6 3.2 0.00 0.00 0.00 75 1008.0
20260504031307 11 174 4.8 4.8 0.00 0.00 0.00 76 1008.1
20260504030803 11 127 3.2 3.2 0.00 0.00 0.00 76 1008.3
20260504030300 11 161 1.6 3.2 0.00 0.00 0.00 76 1008.0
20260504025756 11 177 3.2 3.2 0.00 0.00 0.00 76 1008.0
20260504025253 11 129 3.2 3.2 0.00 0.00 0.00 76 1008.1
20260504024750 11 211 3.2 3.2 0.00 0.00 0.00 75 1008.0
20260504024246 11 150 3.2 4.8 0.00 0.00 0.00 74 1008.1
20260504023743 11 153 3.2 4.8 0.00 0.00 0.00 75 1008.1
20260504023240 11 330 3.2 4.8 0.00 0.00 0.00 74 1007.9
20260504022736 11 171 4.8 8.0 0.00 0.00 0.00 75 1008.0
20260504022232 11 68 1.6 3.2 0.00 0.00 0.00 76 1007.9
20260504021729 11 166 4.8 8.0 0.00 0.00 0.00 76 1007.9
20260504021226 11 165 4.8 4.8 0.00 0.00 0.00 78 1007.9
20260504020723 11 159 4.8 8.0 0.00 0.00 0.00 79 1008.0
20260504020220 11 219 4.8 9.7 0.00 0.00 0.00 79 1008.0
20260504015716 11 148 3.2 4.8 0.00 0.00 0.00 80 1008.1
20260504015213 11 135 4.8 4.8 0.00 0.00 0.00 80 1007.9
20260504014708 11 131 3.2 3.2 0.00 0.00 0.00 81 1008.1
20260504014205 11 125 1.6 3.2 0.00 0.00 0.00 82 1008.0
20260504013703 11 74 0.0 1.6 0.00 0.00 0.00 83 1008.1
20260504013200 11 144 1.6 3.2 0.00 0.00 0.00 83 1008.0
20260504012656 11 122 1.6 1.6 0.00 0.00 0.00 83 1008.3
20260504012155 11 136 3.2 3.2 0.00 0.00 0.00 83 1008.2
20260504011651 11 160 1.6 3.2 0.00 0.00 0.00 83 1007.9
20260504011148 11 165 4.8 4.8 0.00 0.00 0.00 82 1008.1
20260504010644 11 130 1.6 3.2 0.00 0.00 0.00 82 1008.2
20260504010139 11 158 1.6 4.8 0.00 0.00 0.00 82 1008.4
20260504005637 11 136 1.6 1.6 0.00 0.00 0.00 82 1008.3
20260504005133 11 91 0.0 0.0 0.00 0.00 0.00 82 1008.3
20260504004632 11 88 0.0 0.0 0.00 0.00 0.00 82 1008.1
20260504004129 11 169 3.2 3.2 0.00 0.00 0.00 81 1008.1
20260504003625 11 161 3.2 3.2 0.00 0.00 0.00 81 1008.2
20260504003121 12 137 1.6 1.6 0.00 0.00 0.00 80 1008.4
20260504002618 12 125 1.6 1.6 0.00 0.00 0.00 80 1008.2
20260504002116 12 121 1.6 1.6 0.00 0.00 0.00 80 1008.3
20260504001614 12 149 1.6 3.2 0.00 0.00 0.00 79 1008.3
20260504001109 12 147 0.0 3.2 0.00 0.00 0.00 78 1008.5
20260504000607 12 162 3.2 8.0 0.00 0.00 0.00 78 1008.5
20260504000104 12 269 4.8 8.0 0.00 0.00 0.00 78 1008.5
20260503235602 12 172 8.0 9.7 0.00 0.00 0.00 78 1008.4
20260503235058 12 164 3.2 3.2 0.00 0.00 0.00 78 1008.3
20260503234556 12 265 1.6 3.2 0.00 0.00 0.00 77 1008.6
20260503234054 12 173 1.6 1.6 0.00 0.00 0.00 76 1008.7
20260503233551 12 181 3.2 4.8 0.00 0.00 0.00 75 1008.7
20260503233047 12 357 3.2 4.8 0.00 0.00 0.00 75 1009.0
20260503232544 12 127 0.0 3.2 0.00 0.00 0.00 75 1008.9
20260503232041 12 146 3.2 3.2 0.00 0.00 0.00 74 1009.0
20260503231539 12 114 4.8 8.0 0.00 0.00 0.00 72 1009.0
20260503231035 12 138 8.0 12.9 0.00 0.00 0.00 71 1009.2
20260503230532 12 196 4.8 9.7 0.00 0.00 0.00 71 1009.3
20260503230030 12 288 6.4 9.7 0.00 0.00 0.00 71 1009.2
20260503225526 12 135 4.8 4.8 0.00 0.00 0.00 72 1009.5
20260503225021 12 151 4.8 11.3 0.00 0.00 0.00 71 1009.3
20260503224520 12 165 4.8 4.8 0.00 0.00 0.00 70 1009.1
20260503224017 12 77 6.4 9.7 0.00 0.00 0.00 70 1009.6
20260503223515 13 187 6.4 8.0 0.00 0.00 0.00 70 1009.5
20260503223010 13 130 6.4 9.7 0.00 0.00 0.00 70 1009.4
20260503222509 13 168 1.6 1.6 0.00 0.00 0.00 69 1009.9
20260503222006 13 158 4.8 8.0 0.00 0.00 0.00 69 1009.8
20260503221504 13 88 3.2 3.2 0.00 0.00 0.00 68 1009.9